Regional Weather Roundup
Issued by NWS

Home | Current Version | Previous Version | Graphics & Text | Print | Product List | Glossary On
Versions: 1 2 3 4 5 6 7 8 9 10 11 12 13 14 15 16 17 18 19 20 21 22 23 24 25 26 27 28 29 30 31 32 33 34 35 36 37 38 39 40 41 42 43 44 45 46 47 48 49 50
000
ASUS45 KTFX 241404
RWRMT
MONTANA HOURLY WEATHER ROUNDUP
NATIONAL WEATHER SERVICE GREAT FALLS MT
804 AM MDT THU APR 24 2014

NOTE: "FAIR" INDICATES FEW OR NO CLOUDS BELOW 12000 FEET WITH NO
SIGNIFICANT WEATHER AND/OR OBSTRUCTIONS TO VISIBILITY.

* THESE STATIONS ARE NOT UNDER NWS QUALITY CONTROL. THEY DO NOT
   REPORT WEATHER SUCH AS PRECIPITATION OR FOG.

MTZ001>007-043-241500-
WEST OF THE DIVIDE
CITY           SKY/WX    TMP DP  RH WIND       PRES   REMARKS
KALISPELL      CLOUDY    39  34  82 CALM      29.79F
MISSOULA       CLOUDY    37  36  96 CALM      29.83F
BUTTE          CLOUDY    36  25  64 CALM      29.84S
MULLAN PASS    SNOW      28  28 100 VRB3      29.73S VSB M1/4
* ESSEX        N/A       33  30  89 N/A        N/A
* LINCOLN      N/A       30  29  96 N2         N/A
* LOOKOUT PASS N/A       32  32 100 N/A        N/A
* POLSON       N/A       35  34  96 N/A        N/A
* SEELEY LAKE  N/A       31  30  96 N/A        N/A
* THOMP F APT  CLOUDY    28  22  78 NE2G8      N/A
$$

MTZ008-052>055-241500-
SOUTHWEST MONTANA
CITY           SKY/WX    TMP DP  RH WIND       PRES   REMARKS
BOZEMAN        CLOUDY    43  27  53 SE7       29.86F
DILLON         CLOUDY    39  23  53 S8        29.85S WCI  33
W YELLOWSTONE  N/A       29  24  82 SW1G6      N/A
* BOULDER HILL N/A       35  20  54 S10        N/A   WCI  27
* MONIDA PASS  N/A       25  20  81 SE14       N/A   WCI  13
* RAYNOLDS PAS N/A       26  11  53 S14G19     N/A   WCI  14
* WHITEHALL    N/A       42  25  51 NE4G10     N/A
* WISE RIVER   N/A       33  24  70 NW2        N/A
$$

MTZ009>010-012-014-046-048-049-054-241500-
EAST SLOPES AND CENTRAL MONTANA
CITY           SKY/WX    TMP DP  RH WIND       PRES   REMARKS
CUT BANK       CLOUDY    43  27  53 W15       29.75S
GREAT FALLS    PTSUNNY   41  30  65 SW9       29.79S
HELENA         PTSUNNY   37  36  96 CALM      29.84S
MALMSTROM AFB  CLOUDY    45  30  56 SW10      29.77S
* DEARBORN     N/A       42  30  63 SW8        N/A
* EAST GLACIER N/A       34  25  70 W25G32     N/A   WCI  21
* MONARCH      N/A       36  20  52 SW12G17    N/A   WCI  28
* PENDROY      N/A       38  24  57 S4         N/A
* ROGERS PASS  N/A       31  27  85 SE8        N/A   WCI  24
* SAINT MARY   N/A       36  21  54 S7G14      N/A   WCI  30
* SWEET GRASS  N/A       36  20  52 S13        N/A   WCI  27
$$

MTZ011-013-016-021-035-040-045-047-050-051-241500-
NORTH CENTRAL MONTANA
CITY           SKY/WX    TMP DP  RH WIND       PRES   REMARKS
HAVRE          SUNNY     39  28  65 SW16      29.80R WCI  30
LEWISTOWN      PTCLDY    39  28  65 NW5       29.82S WCI  35
* CHESTER      N/A       28  21  75 S2         N/A
* DENTON       N/A       43  29  58 SW7        N/A
* GEYSER       N/A       40  26  57 NW4G11     N/A
* JUDITH GAP   N/A       41  29  62 W14        N/A
* LOMA         N/A       36  28  73 SW4        N/A
$$

MTZ017>020-022>027-061-062-241500-
NORTHEAST MONTANA
CITY           SKY/WX    TMP DP  RH WIND       PRES   REMARKS
GLASGOW        SUNNY     39  28  65 W10       29.77R WCI  32
GLENDIVE       SUNNY     46  27  48 W18G23    29.79S
JORDAN         SUNNY     41  27  58 W10       29.80R
SIDNEY         SUNNY     46  27  48 W20G25    29.75S
WOLF POINT     SUNNY     39  28  65 W12       29.76R WCI  32
* BEAVER HILL  N/A       43  26  51 SW12G17    N/A
* CIRCLE       N/A       36  26  67 SW5        N/A   WCI  32
* LINDSAY DVD  N/A       41  24  51 W16G24     N/A
* NAVAJO       N/A       40  33  76 NW16       N/A   WCI  32
* SACO         N/A       40  28  62 SW9        N/A   WCI  34
$$

MTZ028>042-056>058-241500-
SOUTHCENTRAL AND SOUTHEAST MONTANA
CITY           SKY/WX    TMP DP  RH WIND       PRES   REMARKS
BAKER          PTCLDY    45  27  49 W16       29.82R
BILLINGS       PTCLDY    41  25  53 W7        29.85R
LIVINGSTON     PTCLDY    45  21  38 SW38G47   29.82R
MILES CITY     SUNNY     46  28  50 W13       29.83S
* HYSHAM       N/A       44  28  53 NW11       N/A
* LAME DEER    N/A       39  28  65 W2G11      N/A
* REED POINT   N/A       36  30  79 NE2        N/A
* ROSCOE HILL  N/A       44  12  27 SW8G29     N/A
$$

REGIONAL REPORTS...DAKOTAS
CITY           SKY/WX    TMP DP  RH WIND       PRES   REMARKS
WILLISTON      SUNNY     43  28  56 W20G26    29.70S
DICKINSON      SUNNY     46  27  48 W18       29.74S
CROSBY         PTSUNNY   39  36  89 W13       29.68S WCI  31
TIOGA          SUNNY     41  32  70 W17G22    29.72R
WATFORD CITY   SUNNY     45  27  49 W16G24    29.71S
BISMARCK       SUNNY     45  28  51 W6        29.76R
GRAND FORKS    CLOUDY    39  39 100 SE10      29.76F WCI  32
FARGO          LGT RAIN  43  39  86 SE5       29.76S VSB 3
BUFFALO SD     PTCLDY    45  30  56 W29G36    29.78R
RAPID CITY     SUNNY     48  21  34 NW7       29.86R
$$

REGIONAL REPORTS...WYOMING/IDAHO/WASHINGTON
CITY           SKY/WX    TMP DP  RH WIND       PRES   REMARKS
GILLETTE       SUNNY     45  21  38 SW18      29.87R
SHERIDAN       SUNNY     37  23  57 CALM      29.88R
CODY           PTCLDY    45  19  35 W17G28    29.90R
YELLOWSTONE LA PTCLDY    28  19  69 CALM      30.00R
SALMON         CLOUDY    41  28  60 CALM      29.85S
MULLAN PASS    SNOW      28  28 100 VRB3      29.73S VSB M1/4
SPOKANE        LGT RAIN  43  41  93 S8        29.72F VSB 3

$$




USA.gov is the U.S. government's official web portal to all federal, state and local government web resources and services.